Weather History for PHNG - August, 2013

Change the Weather History Date:

Saturday, August 31, 2013

  Actual Average Record
Temperature  
Mean Temperature 82 °F -  
Max Temperature 89 °F 81 °F 89 °F (2013)
Min Temperature 75 °F 73 °F 73 °F (1996)
Cooling Degree Days 17    
Growing Degree Days 32 (Base 50)    
Moisture  
Dew Point 69 °F    
Average Humidity 67    
Maximum Humidity 79    
Minimum Humidity 49    
Precipitation  
Precipitation 0.00 in - - ()
Sea Level Pressure  
Sea Level Pressure 30.02 in    
Wind  
Wind Speed 7 mph (ENE)    
Max Wind Speed 13 mph    
Max Gust Speed 20 mph    
Visibility 9 miles    
Events Rain    
Averages and records for this station are not official NWS values.
T = Trace of Precipitation, MM = Missing Value Source: NWS Daily Summary

Daily Weather History Graph

Daily Weather History Graph

Search for Another Location

Airport or City:

Trip Planner

Search our weather history database for the weather conditions in past years. The results will help you decide how hot, cold, wet, or windy it might be!

Date:

Astronomy

Aug. 31, 2013 Rise Set
Actual Time 6:14 AM HST 6:47 PM HST
Civil Twilight 5:51 AM HST 7:10 PM HST
Nautical Twilight 5:25 AM HST 7:36 PM HST
Astronomical Twilight 4:58 AM HST 8:03 PM HST
Moon 2:13 AM HST 3:35 PM HST
Length of Visible Light 13h 18m
Length of Day
12h 33m
Waning Crescent, 19% of the Moon is Illuminated
Aug 31
Waning Crescent
Sep 5
New
Sep 12
First Quarter
Sep 19
Full
Sep 26
Last Quarter

Hourly Weather History & Observations

Time (HST) Temp. Heat Index Dew Point Humidity Pressure Visibility Wind Dir Wind Speed Gust Speed Precip Events Conditions
12:57 AM 77.7 °F - 70.0 °F 77% 30.02 in 10.0 mi East 4.6 mph - N/A   Scattered Clouds
1:57 AM 77.5 °F - 69.1 °F 75% 30.01 in 10.0 mi East 4.6 mph - N/A   Scattered Clouds
2:09 AM 77.0 °F - 69.8 °F 78% 30.02 in 6.2 mi East 6.9 mph - N/A   Mostly Cloudy
2:20 AM 77.0 °F - 69.8 °F 78% 30.02 in 6.2 mi East 4.6 mph - N/A   Scattered Clouds
2:57 AM 77.5 °F - 69.1 °F 75% 30.00 in 10.0 mi East 4.6 mph - N/A   Mostly Cloudy
3:57 AM 77.5 °F - 69.1 °F 75% 30.00 in 10.0 mi ENE 4.6 mph - N/A   Partly Cloudy
4:57 AM 75.9 °F - 69.1 °F 79% 30.01 in 10.0 mi East 5.8 mph - N/A   Scattered Clouds
5:57 AM 75.9 °F - 69.1 °F 79% 30.02 in 10.0 mi ENE 4.6 mph - N/A   Scattered Clouds
6:57 AM 75.4 °F - 66.9 °F 75% 30.03 in 10.0 mi East 5.8 mph - N/A   Scattered Clouds
7:57 AM 78.1 °F - 70.0 °F 76% 30.05 in 10.0 mi ENE 6.9 mph - N/A   Overcast
8:57 AM 78.8 °F - 70.0 °F 74% 30.06 in 10.0 mi ENE 10.4 mph - N/A   Mostly Cloudy
9:48 AM 82.4 °F 86.3 °F 69.8 °F 66% 30.07 in 6.2 mi ENE 8.1 mph - N/A   Mostly Cloudy
9:57 AM 84.2 °F 87.9 °F 69.1 °F 60% 30.06 in 10.0 mi ENE 9.2 mph 17.3 mph N/A   Mostly Cloudy
10:13 AM 84.2 °F 88.4 °F 69.8 °F 62% 30.08 in 6.2 mi ENE 10.4 mph 16.1 mph N/A   Mostly Cloudy
10:57 AM 84.2 °F 87.9 °F 69.1 °F 60% 30.06 in 10.0 mi ENE 12.7 mph 18.4 mph N/A   Mostly Cloudy
11:20 AM 84.2 °F 87.3 °F 68.0 °F 58% 30.07 in 6.2 mi East 9.2 mph 18.4 mph N/A   Mostly Cloudy
11:28 AM 84.2 °F 87.3 °F 68.0 °F 58% 30.07 in 6.2 mi ENE 9.2 mph - N/A   Mostly Cloudy
11:57 AM 84.2 °F 87.3 °F 68.0 °F 58% 30.05 in 10.0 mi Variable 5.8 mph - N/A   Mostly Cloudy
12:19 PM 84.2 °F 88.4 °F 69.8 °F 62% 30.05 in 6.2 mi ENE 8.1 mph - N/A   Mostly Cloudy
12:31 PM 87.8 °F 92.6 °F 69.8 °F 55% 30.05 in 6.2 mi East 6.9 mph - N/A   Scattered Clouds
12:57 PM 87.8 °F 92.2 °F 69.1 °F 54% 30.02 in 10.0 mi ENE 9.2 mph 17.3 mph N/A   Scattered Clouds
1:57 PM 89.6 °F 93.4 °F 68.0 °F 49% 30.00 in 10.0 mi ENE 10.4 mph 17.3 mph N/A   Partly Cloudy
2:57 PM 87.8 °F 91.4 °F 68.0 °F 52% 29.98 in 10.0 mi ENE 10.4 mph - N/A   Partly Cloudy
3:57 PM 86.0 °F 89.4 °F 68.0 °F 55% 29.97 in 10.0 mi ENE 12.7 mph 17.3 mph N/A   Partly Cloudy
4:57 PM 86.0 °F 89.4 °F 68.0 °F 55% 29.96 in 10.0 mi ENE 10.4 mph 18.4 mph N/A   Scattered Clouds
5:57 PM 82.4 °F 85.8 °F 69.1 °F 64% 29.97 in 10.0 mi East 12.7 mph 19.6 mph N/A   Mostly Cloudy
6:57 PM 82.4 °F 85.8 °F 69.1 °F 64% 29.98 in 10.0 mi ENE 8.1 mph - N/A   Scattered Clouds
7:57 PM 80.6 °F 82.9 °F 66.9 °F 63% 29.99 in 10.0 mi East 10.4 mph 17.3 mph N/A   Partly Cloudy
8:57 PM 78.8 °F - 68.0 °F 69% 30.00 in 10.0 mi ENE 12.7 mph 19.6 mph N/A   Partly Cloudy
9:57 PM 77.0 °F - 69.1 °F 76% 30.01 in 10.0 mi East 10.4 mph 16.1 mph N/A   Partly Cloudy
10:57 PM 77.0 °F - 68.0 °F 74% 30.01 in 10.0 mi East 10.4 mph 19.6 mph N/A Rain Light Rain
11:57 PM 75.2 °F - 66.9 °F 75% 30.01 in 10.0 mi ENE 11.5 mph 18.4 mph N/A   Mostly Cloudy